Weather History for Silver Bay, MN

Change the Weather History Date:

Saturday, April 5, 2014

  Actual Average Record
Temperature  
Mean Temperature 24 °F -  
Max Temperature 42 °F 39 °F 53 °F (2006)
Min Temperature 6 °F 21 °F 6 °F (2007)
Degree Days  
Heating Degree Days 41    
Moisture  
Dew Point 22 °F    
Average Humidity 76    
Maximum Humidity 100    
Minimum Humidity 52    
Precipitation  
Precipitation 0.00 in - - ()
Sea Level Pressure  
Sea Level Pressure 29.95 in    
Wind  
Wind Speed 4 mph (SSW)    
Max Wind Speed 20 mph    
Max Gust Speed 26 mph    
Visibility 10 miles    
Events      
Averages and records for this station are not official NWS values.
T = Trace of Precipitation, MM = Missing Value Source: NWS Daily Summary

Daily Weather History Graph

Daily Weather History Graph

Search for Another Location

Airport:

Trip Planner

Search our weather history database for the weather conditions in past years. The results will help you decide how hot, cold, wet, or windy it might be!

Date:

Astronomy

Apr. 05, 2014 Rise Set
Actual Time 6:36 AM CDT 7:40 PM CDT
Civil Twilight 6:05 AM CDT 8:12 PM CDT
Nautical Twilight 5:27 AM CDT 8:49 PM CDT
Astronomical Twilight 4:48 AM CDT 9:29 PM CDT
Moon 10:30 AM CDT (4/5) 1:04 AM CDT (4/5)
Length of Visible Light 14h 06m
Length of Day
13h 04m
Waxing Crescent, 34% of the Moon is Illuminated
Apr 5
Waxing Crescent
Apr 7
First Quarter
Apr 15
Full
Apr 22
Last Quarter
Apr 29
New

Hourly Weather History & Observations

Time (CDT) Temp. Windchill Dew Point Humidity Pressure Visibility Wind Dir Wind Speed Gust Speed Precip Events Conditions
12:14 AM 19.4 °F - 19.4 °F 100% 29.93 in 10.0 mi Calm Calm - N/A   Clear
12:33 AM 17.6 °F - 17.6 °F 100% 29.93 in 10.0 mi Calm Calm - N/A   Clear
12:53 AM 17.6 °F - 17.6 °F 100% 29.94 in 10.0 mi Calm Calm - N/A   Clear
1:13 AM 15.8 °F - 15.8 °F 100% 29.95 in 10.0 mi Calm Calm - N/A   Clear
1:34 AM 17.6 °F - 17.6 °F 100% 29.95 in 10.0 mi Calm Calm - N/A   Clear
1:54 AM 15.8 °F - 15.8 °F 100% 29.95 in 10.0 mi Calm Calm - N/A   Clear
2:13 AM 17.6 °F - 17.6 °F 100% 29.96 in 10.0 mi Calm Calm - N/A   Clear
2:33 AM 15.8 °F - 15.8 °F 100% 29.96 in 10.0 mi Calm Calm - N/A   Clear
2:54 AM 14.0 °F - 14.0 °F 100% 29.96 in 10.0 mi Calm Calm - N/A   Clear
3:13 AM 15.8 °F - 15.8 °F 100% 29.96 in 10.0 mi Calm Calm - N/A   Clear
3:34 AM 15.8 °F - 15.8 °F 100% 29.96 in 10.0 mi Calm Calm - N/A   Clear
3:53 AM 12.2 °F - 12.2 °F 100% 29.96 in 10.0 mi Calm Calm - N/A   Clear
4:14 AM 12.2 °F - 12.2 °F 100% 29.96 in 10.0 mi Calm Calm - N/A   Clear
4:34 AM 10.4 °F - 10.4 °F 100% 29.97 in 10.0 mi Calm Calm - N/A   Clear
4:54 AM 10.4 °F - 10.4 °F 100% 29.98 in 10.0 mi Calm Calm - N/A   Clear
5:13 AM 12.2 °F - 12.2 °F 100% 29.98 in 10.0 mi Calm Calm - N/A   Clear
5:34 AM 12.2 °F - 12.2 °F 100% 29.99 in 10.0 mi Calm Calm - N/A   Clear
5:54 AM 10.4 °F - 10.4 °F 100% 29.99 in 10.0 mi Calm Calm - N/A   Clear
6:13 AM 10.4 °F - 10.4 °F 100% 29.99 in 10.0 mi Calm Calm - N/A   Clear
6:34 AM 10.4 °F - 10.4 °F 100% 29.99 in 10.0 mi Calm Calm - N/A   Clear
6:53 AM 8.6 °F - 8.6 °F 100% 30.00 in 10.0 mi Calm Calm - N/A   Clear
7:13 AM 6.8 °F - 6.8 °F 100% 30.00 in 10.0 mi Calm Calm - N/A   Clear
7:34 AM 12.2 °F - 12.2 °F 100% 30.01 in 10.0 mi Calm Calm - N/A   Clear
7:56 AM 15.8 °F - 15.8 °F 100% 30.01 in 10.0 mi Calm Calm - N/A   Clear
8:13 AM 17.6 °F - 15.8 °F 93% 30.01 in 10.0 mi Calm Calm - N/A   Clear
8:33 AM 19.4 °F - 15.8 °F 86% 30.01 in 10.0 mi Calm Calm - N/A   Clear
8:53 AM 24.8 °F - 19.4 °F 80% 30.01 in 10.0 mi Calm Calm - N/A   Clear
9:13 AM 26.6 °F - 21.2 °F 80% 30.01 in 10.0 mi Calm Calm - N/A   Clear
9:33 AM 30.2 °F - 19.4 °F 64% 30.01 in 10.0 mi Calm Calm - N/A   Clear
9:54 AM 33.8 °F - 19.4 °F 56% 30.01 in 10.0 mi Calm Calm - N/A   Clear
10:14 AM 35.6 °F - 19.4 °F 52% 30.00 in 10.0 mi Calm Calm - N/A   Clear
10:34 AM 37.4 °F 33.8 °F 21.2 °F 52% 30.00 in 10.0 mi South 4.6 mph - N/A   Scattered Clouds
10:53 AM 37.4 °F 33.8 °F 21.2 °F 52% 29.99 in 10.0 mi South 4.6 mph - N/A   Unknown
11:13 AM 37.4 °F 32.8 °F 23.0 °F 56% 29.99 in 10.0 mi SSE 5.8 mph - N/A   Unknown
11:33 AM 37.4 °F 29.8 °F 24.8 °F 60% 29.99 in 10.0 mi South 11.5 mph - N/A   Scattered Clouds
11:53 AM 35.6 °F 29.2 °F 24.8 °F 65% 29.98 in 10.0 mi South 8.1 mph - N/A   Scattered Clouds
12:13 PM 37.4 °F 30.3 °F 24.8 °F 60% 29.98 in 10.0 mi South 10.4 mph - N/A   Scattered Clouds
12:33 PM 39.2 °F 32.5 °F 26.6 °F 61% 29.97 in 10.0 mi South 10.4 mph - N/A   Scattered Clouds
12:54 PM 39.2 °F 31.2 °F 26.6 °F 61% 29.97 in 10.0 mi SSW 13.8 mph 17.3 mph N/A   Clear
1:14 PM 39.2 °F 31.6 °F 26.6 °F 61% 29.97 in 10.0 mi SSW 12.7 mph 18.4 mph N/A   Scattered Clouds
1:33 PM 41.0 °F 33.9 °F 26.6 °F 57% 29.96 in 10.0 mi SSW 12.7 mph 17.3 mph N/A   Scattered Clouds
1:53 PM 41.0 °F 32.8 °F 26.6 °F 57% 29.95 in 10.0 mi South 16.1 mph - N/A   Scattered Clouds
2:14 PM 41.0 °F 32.8 °F 26.6 °F 57% 29.95 in 10.0 mi South 16.1 mph 20.7 mph N/A   Scattered Clouds
2:33 PM 42.8 °F 35.4 °F 28.4 °F 57% 29.94 in 10.0 mi South 15.0 mph 20.7 mph N/A   Scattered Clouds
2:53 PM 42.8 °F 35.4 °F 26.6 °F 53% 29.93 in 10.0 mi South 15.0 mph 19.6 mph N/A   Clear
3:14 PM 42.8 °F 35.4 °F 26.6 °F 53% 29.92 in 10.0 mi SSW 15.0 mph 21.9 mph N/A   Clear
3:33 PM 42.8 °F 34.3 °F 26.6 °F 53% 29.92 in 10.0 mi South 19.6 mph 25.3 mph N/A   Clear
3:53 PM 42.8 °F 35.1 °F 26.6 °F 53% 29.91 in 10.0 mi SSW 16.1 mph 20.7 mph N/A   Clear
4:14 PM 42.8 °F 34.5 °F 26.6 °F 53% 29.91 in 10.0 mi South 18.4 mph 24.2 mph N/A   Clear
4:33 PM 42.8 °F 35.1 °F 26.6 °F 53% 29.90 in 10.0 mi South 16.1 mph 21.9 mph N/A   Clear
4:53 PM 42.8 °F 35.1 °F 26.6 °F 53% 29.89 in 10.0 mi South 16.1 mph 21.9 mph N/A   Clear
5:14 PM 42.8 °F 35.1 °F 26.6 °F 53% 29.89 in 10.0 mi South 16.1 mph 23.0 mph N/A   Clear
5:33 PM 42.8 °F 35.8 °F 26.6 °F 53% 29.89 in 10.0 mi SSW 13.8 mph 21.9 mph N/A   Clear
5:53 PM 42.8 °F 35.4 °F 26.6 °F 53% 29.89 in 10.0 mi SSW 15.0 mph 26.5 mph N/A   Clear
6:13 PM 42.8 °F 35.8 °F 26.6 °F 53% 29.89 in 10.0 mi South 13.8 mph 20.7 mph N/A   Clear
6:33 PM 42.8 °F 35.4 °F 26.6 °F 53% 29.88 in 10.0 mi South 15.0 mph 21.9 mph N/A   Clear
6:53 PM 41.0 °F 33.5 °F 26.6 °F 57% 29.88 in 10.0 mi South 13.8 mph 18.4 mph N/A   Clear
7:14 PM 41.0 °F 33.5 °F 28.4 °F 61% 29.88 in 10.0 mi SSW 13.8 mph 17.3 mph N/A   Clear
7:33 PM 39.2 °F 33.6 °F 28.4 °F 65% 29.89 in 10.0 mi SSW 8.1 mph 17.3 mph N/A   Clear
7:53 PM 39.2 °F 33.6 °F 28.4 °F 65% 29.89 in 10.0 mi SSW 8.1 mph - N/A   Clear
8:13 PM 37.4 °F 32.1 °F 28.4 °F 70% 29.89 in 10.0 mi SSW 6.9 mph - N/A   Clear
8:33 PM 37.4 °F 32.1 °F 28.4 °F 70% 29.89 in 10.0 mi SSW 6.9 mph - N/A   Clear
8:53 PM 37.4 °F 32.1 °F 28.4 °F 70% 29.89 in 10.0 mi SSW 6.9 mph - N/A   Clear
9:14 PM 37.4 °F 32.8 °F 28.4 °F 70% 29.89 in 10.0 mi SW 5.8 mph - N/A   Clear
9:33 PM 37.4 °F 33.8 °F 28.4 °F 70% 29.90 in 10.0 mi SW 4.6 mph - N/A   Clear
9:54 PM 37.4 °F - 28.4 °F 70% 29.90 in 10.0 mi Calm Calm - N/A   Clear
10:13 PM 35.6 °F - 28.4 °F 75% 29.90 in 10.0 mi Calm Calm - N/A   Clear
10:33 PM 35.6 °F - 28.4 °F 75% 29.91 in 10.0 mi Calm Calm - N/A   Clear
10:54 PM 33.8 °F - 26.6 °F 75% 29.92 in 10.0 mi Calm Calm - N/A   Clear
11:13 PM 30.2 °F - 26.6 °F 86% 29.92 in 10.0 mi Calm Calm - N/A   Clear
11:33 PM 28.4 °F - 26.6 °F 93% 29.92 in 10.0 mi Calm Calm - N/A   Clear
11:53 PM 28.4 °F - 26.6 °F 93% 29.91 in 10.0 mi Calm Calm - N/A   Clear